• In France
  • List of Countries
  • For 7 days
  • Water Temperature
  • Satellite Maps
  • Weather Map
  • Weather Widgets
  • user-avatar
    Login

    Hourly Weather Andora

    Today, 16 November, Friday

    Time Temperature Precipitation Wind Pressure Humidity
    00:00 +5°C° 0.1 mm 1 mps 626 mmHg 88%
    01:00 +5°C° 0.1 mm 1 mps 626 mmHg 87%
    02:00 +5°C° 0.1 mm 1 mps 626 mmHg 87%
    03:00 +5°C° 0.1 mm 1 mps 626 mmHg 86%
    04:00 +4°C° 0 mm 1 mps 626 mmHg 86%
    05:00 +4°C° 0 mm 1 mps 626 mmHg 86%
    06:00 +4°C° 0 mm 1 mps 626 mmHg 87%
    07:00 +5°C° 0 mm 1 mps 626 mmHg 83%
    08:00 +7°C° 0 mm 1 mps 627 mmHg 79%
    09:00 +8°C° 0 mm 1 mps 628 mmHg 75%
    10:00 +9°C° 0 mm 1 mps 628 mmHg 72%
    11:00 +10°C° 0 mm 1 mps 628 mmHg 68%
    12:00 +10°C° 0 mm 2 mps 628 mmHg 65%
    13:00 +10°C° 0 mm 2 mps 628 mmHg 68%
    14:00 +9°C° 0 mm 2 mps 628 mmHg 70%
    15:00 +9°C° 0 mm 2 mps 627 mmHg 73%
    16:00 +8°C° 0 mm 1 mps 627 mmHg 80%
    17:00 +7°C° 0 mm 1 mps 626 mmHg 86%
    18:00 +6°C° 0 mm 1 mps 626 mmHg 93%
    19:00 +5°C° 0 mm 1 mps 626 mmHg 93%
    20:00 +5°C° 0 mm 1 mps 626 mmHg 92%
    21:00 +5°C° 0 mm 1 mps 626 mmHg 92%
    22:00 +5°C° 0 mm 1 mps 625 mmHg 92%
    23:00 +5°C° 0 mm 1 mps 625 mmHg 92%

    Tomorrow, 17 November, Saturday

    Time Temperature Precipitation Wind Pressure Humidity
    00:00 +4°C° 0 mm 1 mps 625 mmHg 92%
    01:00 +4°C° 0 mm 1 mps 625 mmHg 92%
    02:00 +4°C° 0 mm 1 mps 625 mmHg 92%
    03:00 +4°C° 0 mm 1 mps 624 mmHg 92%
    04:00 +4°C° 0 mm 1 mps 624 mmHg 91%
    05:00 +4°C° 0 mm 1 mps 624 mmHg 91%
    06:00 +4°C° 0 mm 1 mps 624 mmHg 91%
    07:00 +5°C° 0 mm 1 mps 624 mmHg 87%
    08:00 +6°C° 0 mm 1 mps 625 mmHg 83%
    09:00 +7°C° 0 mm 1 mps 625 mmHg 79%
    10:00 +7°C° 0 mm 1 mps 625 mmHg 77%
    11:00 +7°C° 0 mm 1 mps 625 mmHg 74%
    12:00 +8°C° 0 mm 1 mps 624 mmHg 72%
    13:00 +7°C° 0.1 mm 1 mps 624 mmHg 76%
    14:00 +6°C° 0.1 mm 2 mps 623 mmHg 79%
    15:00 +5°C° 0.1 mm 2 mps 623 mmHg 83%
    16:00 +4°C° 0.4 mm 2 mps 623 mmHg 86%
    17:00 +4°C° 0.4 mm 2 mps 623 mmHg 88%
    18:00 +3°C° 0.4 mm 2 mps 622 mmHg 91%
    19:00 +3°C° 0.5 mm 2 mps 622 mmHg 91%
    20:00 +2°C° 0.5 mm 3 mps 622 mmHg 91%
    21:00 +1°C° 0.5 mm 3 mps 622 mmHg 91%
    22:00 +1°C° 0.5 mm 3 mps 622 mmHg 90%
    23:00 +1°C° 0.5 mm 3 mps 622 mmHg 90%

    Day after tomorrow, 18 November, Sunday

    Time Temperature Precipitation Wind Pressure Humidity
    00:00 +1°C° 0.5 mm 3 mps 621 mmHg 90%
    01:00 +1°C° 0.6 mm 2 mps 621 mmHg 90%
    02:00 +1°C° 0.6 mm 2 mps 621 mmHg 89%
    03:00 +1°C° 0.6 mm 2 mps 621 mmHg 89%
    04:00 +1°C° 0.5 mm 2 mps 620 mmHg 89%
    05:00 +1°C° 0.5 mm 2 mps 620 mmHg 90%
    06:00 +1°C° 0.5 mm 2 mps 620 mmHg 90%
    07:00 +1°C° 0.7 mm 2 mps 621 mmHg 88%
    08:00 +2°C° 0.7 mm 2 mps 621 mmHg 86%
    09:00 +1°C° 0.7 mm 3 mps 621 mmHg 84%
    10:00 +1°C° 0.9 mm 3 mps 621 mmHg 84%
    11:00 +2°C° 0.9 mm 3 mps 621 mmHg 84%
    12:00 +2°C° 0.9 mm 3 mps 621 mmHg 83%
    13:00 +2°C° 0.8 mm 3 mps 621 mmHg 84%
    14:00 +2°C° 0.8 mm 3 mps 620 mmHg 85%
    15:00 +1°C° 0.8 mm 3 mps 620 mmHg 86%
    16:00 +1°C° 0.6 mm 3 mps 620 mmHg 88%
    17:00 +1°C° 0.6 mm 3 mps 620 mmHg 89%
    18:00 +1°C° 0.6 mm 2 mps 619 mmHg 90%
    19:00 +1°C° 0.2 mm 2 mps 619 mmHg 90%
    20:00 -1°C° 0.2 mm 2 mps 619 mmHg 90%
    21:00 -1°C° 0.2 mm 2 mps 619 mmHg 90%
    22:00 -1°C° 0 mm 2 mps 619 mmHg 90%
    23:00 -1°C° 0 mm 2 mps 619 mmHg 89%

    19 November, Monday

    Time Temperature Precipitation Wind Pressure Humidity
    00:00 -1°C° 0 mm 2 mps 619 mmHg 89%
    01:00 +1°C° 0 mm 1 mps 618 mmHg 88%
    02:00 0°C° 0 mm 1 mps 618 mmHg 87%
    03:00 0°C° 0 mm 1 mps 617 mmHg 86%
    04:00 0°C° 0 mm 1 mps 617 mmHg 85%
    05:00 0°C° 0 mm 1 mps 617 mmHg 84%
    06:00 0°C° 0 mm 1 mps 616 mmHg 83%
    07:00 +1°C° 0 mm 1 mps 617 mmHg 81%
    08:00 +2°C° 0 mm 1 mps 617 mmHg 79%
    09:00 +3°C° 0 mm 0 mps 618 mmHg 78%
    10:00 +4°C° 0 mm 1 mps 618 mmHg 75%
    11:00 +5°C° 0 mm 1 mps 618 mmHg 73%
    12:00 +6°C° 0 mm 1 mps 618 mmHg 71%
    13:00 +6°C° 0 mm 1 mps 617 mmHg 72%
    14:00 +6°C° 0 mm 1 mps 617 mmHg 74%
    15:00 +5°C° 0 mm 1 mps 616 mmHg 75%
    16:00 +4°C° 0 mm 1 mps 616 mmHg 79%
    17:00 +2°C° 0 mm 1 mps 615 mmHg 84%
    18:00 +1°C° 0 mm 1 mps 614 mmHg 88%
    19:00 0°C° 0 mm 1 mps 614 mmHg 88%
    20:00 0°C° 0 mm 1 mps 614 mmHg 88%
    21:00 0°C° 0 mm 1 mps 614 mmHg 88%
    22:00 -1°C° 0 mm 1 mps 614 mmHg 87%
    23:00 -1°C° 0 mm 1 mps 613 mmHg 86%

    20 November, Tuesday

    Time Temperature Precipitation Wind Pressure Humidity
    00:00 -1°C° 0 mm 1 mps 613 mmHg 85%
    01:00 -2°C° 0 mm 1 mps 613 mmHg 83%
    02:00 -2°C° 0 mm 1 mps 613 mmHg 82%
    03:00 -4°C° 0 mm 2 mps 612 mmHg 81%
    04:00 -5°C° 0 mm 2 mps 612 mmHg 79%
    05:00 -5°C° 0 mm 2 mps 612 mmHg 78%
    06:00 -5°C° 0 mm 2 mps 612 mmHg 77%
    07:00 -4°C° 0 mm 2 mps 613 mmHg 75%
    08:00 -3°C° 0 mm 2 mps 613 mmHg 73%
    09:00 -2°C° 0 mm 2 mps 614 mmHg 70%
    10:00 -1°C° 0 mm 2 mps 614 mmHg 68%
    11:00 +1°C° 0 mm 2 mps 615 mmHg 66%
    12:00 +2°C° 0 mm 2 mps 615 mmHg 65%
    13:00 +1°C° 0 mm 2 mps 615 mmHg 66%
    14:00 +1°C° 0 mm 2 mps 615 mmHg 68%
    15:00 +1°C° 0 mm 2 mps 615 mmHg 69%
    16:00 -2°C° 0 mm 2 mps 614 mmHg 74%
    17:00 -3°C° 0 mm 2 mps 614 mmHg 79%
    18:00 -5°C° 0 mm 2 mps 614 mmHg 84%
    19:00 -3°C° 0 mm 1 mps 614 mmHg 84%
    20:00 -3°C° 0 mm 1 mps 615 mmHg 84%
    21:00 -3°C° 0 mm 1 mps 615 mmHg 83%
    22:00 -3°C° 0 mm 1 mps 615 mmHg 86%
    23:00 -2°C° 0 mm 1 mps 615 mmHg 88%

    21 November, Wednesday

    Time Temperature Precipitation Wind Pressure Humidity
    00:00 -4°C° 0 mm 2 mps 615 mmHg 90%
    01:00 -2°C° 0.1 mm 1 mps 615 mmHg 90%
    02:00 -2°C° 0.1 mm 1 mps 615 mmHg 90%
    03:00 -2°C° 0.1 mm 1 mps 615 mmHg 91%
    04:00 -2°C° 0.2 mm 1 mps 615 mmHg 89%
    05:00 -2°C° 0.2 mm 1 mps 615 mmHg 88%
    06:00 -2°C° 0.2 mm 1 mps 615 mmHg 87%
    07:00 -1°C° 0.2 mm 1 mps 615 mmHg 87%
    08:00 -3°C° 0.2 mm 2 mps 616 mmHg 87%
    09:00 -2°C° 0.2 mm 2 mps 616 mmHg 86%
    10:00 -1°C° 0 mm 2 mps 616 mmHg 83%
    11:00 0°C° 0 mm 3 mps 617 mmHg 79%
    12:00 +1°C° 0 mm 3 mps 617 mmHg 76%
    13:00 +2°C° 0 mm 2 mps 617 mmHg 77%
    14:00 +2°C° 0 mm 2 mps 617 mmHg 77%
    15:00 +1°C° 0 mm 2 mps 617 mmHg 78%
    16:00 +1°C° 0 mm 1 mps 617 mmHg 83%
    17:00 0°C° 0 mm 1 mps 617 mmHg 87%
    18:00 -3°C° 0 mm 0 mps 617 mmHg 92%
    19:00 -3°C° 0 mm 0 mps 617 mmHg 91%
    20:00 -2°C° 0 mm 1 mps 617 mmHg 90%
    21:00 -3°C° 0 mm 1 mps 617 mmHg 89%
    22:00 -3°C° 0 mm 1 mps 618 mmHg 88%
    23:00 -3°C° 0 mm 1 mps 618 mmHg 87%
    Show more